| time (UTC) | temp F | wind direction | speed MPH | gust MPH | rain 1hr in | rain 24hr in | rain mn in | humidity % | barometer mb |
| 20260905123029 | 59 | 266 | 2.0 | 8.0 | 0.00 | 0.00 | 0.00 | 91 | 957.5 |
| 20260905121524 | 58 | 290 | 2.0 | 4.0 | 0.00 | 0.00 | 0.00 | 91 | 957.6 |
| 20260905120021 | 58 | 286 | 1.0 | 3.0 | 0.00 | 0.00 | 0.00 | 91 | 957.2 |
| 20260905114520 | 58 | 339 | 0.0 | 4.0 | 0.00 | 0.00 | 0.00 | 91 | 957.0 |
| 20260905113019 | 57 | 288 | 1.0 | 3.0 | 0.00 | 0.00 | 0.00 | 91 | 957.0 |
| 20260905111517 | 57 | 309 | 0.0 | 5.0 | 0.00 | 0.00 | 0.00 | 91 | 956.9 |
| 20260905110015 | 57 | 271 | 2.0 | 5.0 | 0.00 | 0.00 | 0.00 | 91 | 956.9 |
| 20260905104523 | 57 | 255 | 2.0 | 7.0 | 0.00 | 0.00 | 0.00 | 91 | 956.4 |
| 20260905103013 | 58 | 268 | 1.0 | 7.0 | 0.00 | 0.00 | 0.00 | 91 | 956.4 |
| 20260905101512 | 58 | 284 | 1.0 | 4.0 | 0.00 | 0.00 | 0.00 | 91 | 956.2 |
| 20260905100012 | 58 | 287 | 0.0 | 2.0 | 0.00 | 0.00 | 0.00 | 91 | 956.1 |
| 20260905094510 | 58 | 311 | 1.0 | 7.0 | 0.00 | 0.00 | 0.00 | 91 | 956.0 |
| 20260905093010 | 57 | 296 | 2.0 | 3.0 | 0.00 | 0.00 | 0.00 | 91 | 956.0 |
| 20260905091508 | 57 | 301 | 0.0 | 1.0 | 0.00 | 0.00 | 0.00 | 90 | 955.9 |
| 20260905090009 | 57 | 301 | 1.0 | 3.0 | 0.00 | 0.00 | 0.00 | 90 | 956.1 |
| 20260905084511 | 58 | 322 | 1.0 | 3.0 | 0.00 | 0.00 | 0.00 | 90 | 956.0 |
| 20260905083004 | 58 | 326 | 0.0 | 2.0 | 0.00 | 0.00 | 0.00 | 90 | 956.0 |
| 20260905081502 | 58 | 269 | 0.0 | 2.0 | 0.00 | 0.00 | 0.00 | 90 | 956.1 |
| 20260905080002 | 58 | 320 | 1.0 | 4.0 | 0.00 | 0.00 | 0.00 | 90 | 956.2 |
| 20260905074600 | 58 | 273 | 1.0 | 4.0 | 0.00 | 0.00 | 0.00 | 89 | 956.2 |
| 20260905073100 | 58 | 298 | 0.0 | 3.0 | 0.00 | 0.00 | 0.00 | 89 | 956.3 |
| 20260905071602 | 59 | 342 | 1.0 | 3.0 | 0.00 | 0.00 | 0.00 | 89 | 956.4 |
| 20260905070054 | 59 | 311 | 1.0 | 4.0 | 0.00 | 0.00 | 0.00 | 89 | 956.6 |
| 20260905064557 | 60 | 272 | 0.0 | 3.0 | 0.00 | 0.00 | 0.00 | 88 | 956.6 |
| 20260905063051 | 60 | 258 | 0.0 | 4.0 | 0.00 | 0.00 | 0.00 | 88 | 956.7 |
| 20260905061606 | 60 | 241 | 2.0 | 6.0 | 0.00 | 0.00 | 0.00 | 88 | 956.9 |
| 20260905060047 | 61 | 275 | 3.0 | 7.0 | 0.00 | 0.00 | 0.00 | 87 | 956.8 |
| 20260905054547 | 61 | 269 | 3.0 | 8.0 | 0.00 | 0.00 | 0.00 | 86 | 956.9 |
| 20260905053050 | 61 | 257 | 3.0 | 7.0 | 0.00 | 0.00 | 0.00 | 86 | 956.9 |
| 20260905051545 | 61 | 276 | 3.0 | 7.0 | 0.00 | 0.00 | 0.00 | 86 | 957.1 |
| 20260905050043 | 61 | 271 | 3.0 | 8.0 | 0.00 | 0.00 | 0.00 | 86 | 957.2 |
| 20260905044541 | 61 | 265 | 3.0 | 7.0 | 0.00 | 0.31 | 0.00 | 86 | 957.2 |
| 20260905043105 | 61 | 276 | 3.0 | 6.0 | 0.00 | 0.31 | 0.00 | 86 | 957.3 |
| 20260905041638 | 61 | 271 | 0.0 | 4.0 | 0.00 | 0.31 | 0.00 | 85 | 957.4 |
| 20260905040045 | 61 | 290 | 2.0 | 4.0 | 0.00 | 0.31 | 0.00 | 85 | 957.4 |
| 20260905034533 | 62 | 306 | 0.0 | 3.0 | 0.00 | 0.43 | 0.31 | 86 | 957.3 |
| 20260905033035 | 62 | 292 | 0.0 | 2.0 | 0.00 | 0.43 | 0.31 | 86 | 957.3 |
| 20260905031530 | 63 | 292 | 0.0 | 2.0 | 0.00 | 0.43 | 0.31 | 85 | 957.3 |
| 20260905030030 | 63 | 292 | 0.0 | 1.0 | 0.00 | 0.43 | 0.31 | 85 | 957.3 |
| 20260905024530 | 63 | 296 | 0.0 | 3.0 | 0.00 | 0.43 | 0.31 | 84 | 957.3 |
| 20260905023033 | 63 | 295 | 0.0 | 1.0 | 0.00 | 0.43 | 0.31 | 84 | 957.2 |
| 20260905021533 | 64 | 295 | 0.0 | 1.0 | 0.00 | 0.43 | 0.31 | 84 | 957.3 |
| 20260905020027 | 64 | 295 | 0.0 | 1.0 | 0.00 | 0.43 | 0.31 | 83 | 957.4 |
| 20260905014527 | 65 | 286 | 0.0 | 3.0 | 0.00 | 0.43 | 0.31 | 84 | 957.6 |
| 20260905013027 | 65 | 279 | 0.0 | 4.0 | 0.00 | 0.43 | 0.31 | 84 | 957.8 |
| 20260905011525 | 65 | 334 | 0.0 | 3.0 | 0.00 | 0.43 | 0.31 | 83 | 957.5 |
| 20260905010025 | 66 | 336 | 0.0 | 1.0 | 0.00 | 0.43 | 0.31 | 83 | 957.5 |
| 20260905004525 | 66 | 336 | 0.0 | 5.0 | 0.00 | 0.43 | 0.31 | 83 | 957.6 |
| 20260905003025 | 66 | 283 | 0.0 | 4.0 | 0.00 | 0.43 | 0.31 | 83 | 957.4 |
| 20260905001529 | 66 | 341 | 0.0 | 3.0 | 0.00 | 0.43 | 0.31 | 82 | 957.3 |
| 20260905000031 | 67 | 355 | 0.0 | 4.0 | 0.00 | 0.43 | 0.31 | 81 | 957.2 |
| 20260904234528 | 68 | 346 | 0.0 | 3.0 | 0.00 | 0.43 | 0.31 | 81 | 957.1 |
| 20260904233025 | 68 | 286 | 1.0 | 3.0 | 0.00 | 0.43 | 0.31 | 80 | 957.1 |
| 20260904231520 | 68 | 261 | 1.0 | 4.0 | 0.00 | 0.43 | 0.31 | 79 | 957.1 |
| 20260904230022 | 69 | 288 | 2.0 | 4.0 | 0.00 | 0.43 | 0.31 | 78 | 957.0 |
| 20260904224527 | 70 | 294 | 2.0 | 5.0 | 0.00 | 0.47 | 0.31 | 77 | 956.9 |
| 20260904223019 | 71 | 282 | 3.0 | 6.0 | 0.00 | 0.47 | 0.31 | 76 | 956.9 |
| 20260904221521 | 72 | 273 | 1.0 | 5.0 | 0.00 | 0.47 | 0.31 | 76 | 956.9 |
| 20260904220026 | 72 | 269 | 2.0 | 9.0 | 0.00 | 0.47 | 0.31 | 74 | 956.9 |
| 20260904214526 | 72 | 277 | 4.0 | 11.0 | 0.00 | 0.47 | 0.31 | 74 | 956.7 |
| 20260904213017 | 73 | 242 | 3.0 | 9.0 | 0.00 | 0.47 | 0.31 | 70 | 956.8 |
| 20260904211521 | 74 | 360 | 3.0 | 9.0 | 0.00 | 0.47 | 0.31 | 71 | 956.8 |
| 20260904210016 | 74 | 246 | 3.0 | 9.0 | 0.00 | 0.47 | 0.31 | 73 | 956.8 |
| 20260904204514 | 73 | 264 | 4.0 | 10.0 | 0.00 | 0.47 | 0.31 | 70 | 957.0 |
| 20260904203027 | 75 | 269 | 3.0 | 11.0 | 0.00 | 0.47 | 0.31 | 68 | 957.1 |
| 20260904201513 | 76 | 296 | 4.0 | 12.0 | 0.00 | 0.47 | 0.31 | 67 | 957.3 |
| 20260904200012 | 76 | 288 | 3.0 | 11.0 | 0.00 | 0.47 | 0.31 | 70 | 957.4 |
| 20260904194520 | 76 | 272 | 2.0 | 12.0 | 0.00 | 0.47 | 0.31 | 69 | 957.4 |
| 20260904193011 | 75 | 236 | 5.0 | 13.0 | 0.00 | 0.47 | 0.31 | 69 | 957.6 |
| 20260904191510 | 76 | 292 | 6.0 | 15.0 | 0.00 | 0.47 | 0.31 | 68 | 957.6 |
| 20260904190008 | 75 | 305 | 5.0 | 9.0 | 0.00 | 0.47 | 0.31 | 71 | 957.6 |
| 20260904184508 | 75 | 329 | 3.0 | 9.0 | 0.00 | 0.47 | 0.31 | 70 | 957.7 |
| 20260904183007 | 75 | 240 | 4.0 | 13.0 | 0.00 | 0.47 | 0.31 | 71 | 957.8 |
| 20260904181506 | 75 | 294 | 5.0 | 9.0 | 0.00 | 0.47 | 0.31 | 70 | 958.0 |
| 20260904180005 | 76 | 269 | 2.0 | 9.0 | 0.00 | 0.47 | 0.31 | 68 | 958.1 |
| 20260904174502 | 74 | 282 | 3.0 | 8.0 | 0.00 | 0.47 | 0.31 | 74 | 958.4 |
| 20260904173059 | 73 | 250 | 2.0 | 10.0 | 0.00 | 0.47 | 0.31 | 75 | 958.5 |
| 20260904171600 | 73 | 282 | 1.0 | 5.0 | 0.00 | 0.47 | 0.31 | 76 | 958.4 |
| 20260904170059 | 74 | 262 | 3.0 | 7.0 | 0.00 | 0.47 | 0.31 | 74 | 958.3 |
| 20260904164558 | 73 | 291 | 3.0 | 6.0 | 0.00 | 0.47 | 0.31 | 75 | 958.5 |
| 20260904163054 | 73 | 68 | 1.0 | 8.0 | 0.00 | 0.47 | 0.31 | 77 | 958.5 |
| 20260904161602 | 72 | 288 | 2.0 | 6.0 | 0.00 | 0.47 | 0.31 | 77 | 958.4 |
| 20260904160049 | 72 | 101 | 1.0 | 8.0 | 0.00 | 0.47 | 0.31 | 78 | 958.5 |
| 20260904154547 | 71 | 265 | 1.0 | 7.0 | 0.00 | 0.47 | 0.31 | 81 | 958.4 |
| 20260904153051 | 70 | 333 | 5.0 | 9.0 | 0.00 | 0.47 | 0.31 | 82 | 958.4 |
| 20260904151540 | 70 | 272 | 1.0 | 6.0 | 0.00 | 0.47 | 0.31 | 83 | 958.7 |
| 20260904150039 | 70 | 33 | 3.0 | 9.0 | 0.00 | 0.47 | 0.31 | 83 | 958.7 |
| 20260904144551 | 69 | 257 | 4.0 | 10.0 | 0.00 | 0.47 | 0.31 | 83 | 958.6 |
| 20260904143039 | 69 | 63 | 2.0 | 7.0 | 0.00 | 0.47 | 0.31 | 84 | 958.7 |
| 20260904141537 | 68 | 74 | 1.0 | 8.0 | 0.00 | 0.47 | 0.31 | 84 | 958.6 |
| 20260904140048 | 68 | 289 | 2.0 | 8.0 | 0.00 | 0.47 | 0.31 | 85 | 958.8 |
| 20260904134533 | 67 | 238 | 2.0 | 8.0 | 0.00 | 0.47 | 0.31 | 86 | 958.4 |
| 20260904133033 | 66 | 290 | 5.0 | 10.0 | 0.00 | 0.47 | 0.31 | 87 | 958.5 |
| 20260904131526 | 65 | 25 | 1.0 | 9.0 | 0.00 | 0.47 | 0.31 | 88 | 958.4 |
| 20260904130025 | 65 | 241 | 2.0 | 6.0 | 0.00 | 0.47 | 0.31 | 90 | 958.5 |
| 20260904124523 | 64 | 252 | 2.0 | 7.0 | 0.00 | 0.47 | 0.31 | 91 | 958.5 |